Location: Brantford
(43.1330°N, 80.2670°W)
Time: 04:58:06
(UTC-04:00)

X-37B - Visible Passes

Search period start: 18 September 2020 00:00
Search period end: 28 September 2020 00:00
Orbit: 386 x 387 km, 45.0° (Epoch: 15 September)

Date Brightness Start Highest point End Pass type
(mag) Time Alt. Az. Time Alt. Az. Time Alt. Az.
18 Sep 0.9 05:34:09 41° WNW 05:34:59 58° N 05:38:09 10° E visible
19 Sep 3.2 04:38:16 21° ENE 04:38:16 21° ENE 04:39:31 10° ENE visible
19 Sep 0.7 06:10:33 14° WNW 06:13:09 72° N 06:16:19 10° E visible
20 Sep 1.0 05:14:43 59° NNE 05:14:43 59° NNE 05:17:41 10° E visible
21 Sep 4.1 04:18:56 11° E 04:18:56 11° E 04:19:02 10° E visible
21 Sep 0.5 05:51:13 30° WNW 05:52:38 84° SSW 05:55:49 10° ESE visible
22 Sep 2.6 04:55:32 28° E 04:55:32 28° E 04:57:13 10° E visible
22 Sep 1.5 06:27:50 11° W 06:30:33 33° SSW 06:33:27 10° SE visible
23 Sep 0.8 05:32:16 53° S 05:32:16 53° S 05:35:11 10° SE visible
24 Sep 2.1 06:09:08 19° SW 06:09:51 20° SSW 06:12:16 10° SSE visible
25 Sep 3.2 05:13:51 13° SE 05:13:51 13° SE 05:14:20 10° SE visible
